Change the Weather History Date:

Saturday, October 20, 2012

  Actual Average Record
Temperature  
Mean Temperature 57 °F 50 °F  
Max Temperature 71 °F 62 °F 79 °F (1965)
Min Temperature 43 °F 37 °F 18 °F (1974)
Degree Days  
Heating Degree Days 8 16  
Month to date heating degree days 204 247  
Since 1 July heating degree days 304 387  
Cooling Degree Days 0 0  
Month to date cooling degree days 6 0  
Year to date cooling degree days 895 668  
Growing Degree Days 9 (Base 50)    
Moisture  
Dew Point 51 °F    
Average Humidity 69    
Maximum Humidity 100    
Minimum Humidity 37    
Precipitation  
Precipitation 0.00 in 0.15 in 2.82 in (1989)
Month to date precipitation 3.08 2.98  
Year to date precipitation 30.86 38.04  
Sea Level Pressure  
Sea Level Pressure 29.68 in    
Wind  
Wind Speed 4 mph (SW)    
Max Wind Speed 17 mph    
Max Gust Speed 23 mph    
Visibility 6 miles    
Events Fog    
T = Trace of Precipitation, MM = Missing Value Source: NWS Daily Summary

Daily Weather History Graph

Daily Weather History Graph

Search for Another Location

Airport or City:

Trip Planner

Search our weather history database for the weather conditions in past years. The results will help you decide how hot, cold, wet, or windy it might be!

Date:

Astronomy

Oct. 20, 2012 Rise Set
Actual Time 7:13 AM EDT 6:05 PM EDT
Civil Twilight 6:45 AM EDT 6:34 PM EDT
Nautical Twilight 6:13 AM EDT 7:06 PM EDT
Astronomical Twilight 5:41 AM EDT 7:38 PM EDT
Moon 12:49 PM EDT (10/20) 10:46 PM EDT (10/20)
Length of Visible Light 11h 48m
Length of Day
10h 52m
Waxing Crescent, 34% of the Moon is Illuminated
Oct 20
Waxing Crescent
Oct 21
First Quarter
Oct 29
Full
Nov 6
Last Quarter
Nov 13
New

Hourly Weather History & Observations

Time (EDT) Temp. Dew Point Humidity Pressure Visibility Wind Dir Wind Speed Gust Speed Precip Events Conditions
12:05 AM 66.2 °F 62.6 °F 88% 29.67 in 10.0 mi SSE 4.6 mph - N/A   Mostly Cloudy
12:53 AM 66.0 °F 61.0 °F 84% 29.66 in 10.0 mi SSE 5.8 mph - N/A   Scattered Clouds
1:53 AM 64.9 °F 60.1 °F 84% 29.64 in 10.0 mi SSE 5.8 mph - N/A   Clear
2:53 AM 60.1 °F 57.9 °F 93% 29.62 in 8.0 mi SE 4.6 mph - N/A   Clear
3:53 AM 57.9 °F 55.9 °F 93% 29.63 in 3.0 mi Calm Calm - N/A   Clear
3:55 AM 57.2 °F 55.4 °F 94% 29.64 in 1.8 mi Calm Calm - N/A   Clear
4:00 AM 55.4 °F 55.4 °F 100% 29.65 in 0.5 mi Calm Calm - N/A Fog Fog
4:08 AM 57.2 °F 55.4 °F 94% 29.65 in 0.2 mi Calm Calm - N/A Fog Fog
4:53 AM 55.0 °F 54.0 °F 96% 29.65 in 0.2 mi Calm Calm - N/A Fog Fog
5:48 AM 53.6 °F 51.8 °F 94% 29.67 in 0.2 mi Calm Calm - N/A Fog Fog
5:53 AM 53.1 °F 51.1 °F 93% 29.66 in 0.2 mi Calm Calm - N/A Fog Fog
6:53 AM 52.0 °F 51.1 °F 97% 29.66 in 0.2 mi Calm Calm - N/A Fog Fog
7:53 AM 53.1 °F 52.0 °F 96% 29.67 in 0.2 mi Calm Calm - N/A Fog Fog
8:53 AM 55.0 °F 55.0 °F 100% 29.68 in 0.5 mi Calm Calm - N/A Fog Fog
9:00 AM 55.4 °F 55.4 °F 100% 29.68 in 2.0 mi Calm Calm - N/A   Mostly Cloudy
9:02 AM 55.4 °F 55.4 °F 100% 29.68 in 3.0 mi Calm Calm - N/A   Partly Cloudy
9:53 AM 61.0 °F 55.0 °F 81% 29.68 in 10.0 mi SSW 5.8 mph - N/A   Clear
10:53 AM 64.0 °F 54.0 °F 70% 29.68 in 10.0 mi SW 8.1 mph - N/A   Clear
11:53 AM 66.0 °F 53.1 °F 63% 29.67 in 10.0 mi SW 4.6 mph - N/A   Clear
12:53 PM 66.9 °F 48.9 °F 52% 29.64 in 10.0 mi Variable 5.8 mph - N/A   Clear
1:53 PM 70.0 °F 44.1 °F 39% 29.63 in 10.0 mi SW 10.4 mph 16.1 mph N/A   Clear
3:53 PM 66.9 °F 44.1 °F 44% 29.65 in 10.0 mi WSW 10.4 mph - N/A   Clear
5:53 PM 60.1 °F 41.0 °F 49% 29.71 in 10.0 mi West 9.2 mph - N/A   Clear
6:53 PM 57.0 °F 39.9 °F 53% 29.73 in 10.0 mi West 3.5 mph - N/A   Clear
7:53 PM 53.1 °F 41.0 °F 64% 29.75 in 10.0 mi WSW 4.6 mph - N/A   Clear
8:53 PM 54.0 °F 39.9 °F 59% 29.77 in 10.0 mi WSW 8.1 mph - N/A   Clear
9:53 PM 52.0 °F 39.0 °F 61% 29.78 in 10.0 mi Calm Calm - N/A   Clear
10:53 PM 48.0 °F 39.9 °F 74% 29.79 in 10.0 mi Calm Calm - N/A   Clear
11:53 PM 45.0 °F 39.9 °F 82% 29.80 in 10.0 mi Calm Calm - N/A   Clear